Location: Abundant Grace Fellowship
(35.0349°N, 90.0924°W)
Time: 04:58:48
(UTC+00:00)

COSMOS 2455 - Visible Passes

Search period start: 19 April 2026 00:00
Search period end: 29 April 2026 00:00
Orbit: 901 x 908 km, 67.1° (Epoch: 18 April)

Date Brightness Start Highest point End Pass type
(mag) Time Alt. Az. Time Alt. Az. Time Alt. Az.
19 Apr 4.7 04:16:22 10° N 04:19:09 22° NNE 04:19:09 22° NNE visible
19 Apr 5.5 06:01:50 10° NW 06:02:15 12° NW 06:02:15 12° NW visible
20 Apr 4.6 04:19:46 10° N 04:22:46 26° N 04:22:46 26° N visible
21 Apr 4.4 04:23:17 10° NNW 04:26:24 30° N 04:26:24 30° N visible
22 Apr 5.0 02:44:09 10° NNE 02:45:55 11° NE 02:46:57 11° NE visible
22 Apr 4.3 04:26:54 10° NNW 04:30:05 33° NNW 04:30:05 33° NNW visible
23 Apr 4.7 02:46:34 10° NNE 02:49:58 15° NE 02:50:39 15° NE visible
23 Apr 4.3 04:30:35 10° NNW 04:33:47 33° NNW 04:33:47 33° NNW visible
24 Apr 4.4 02:49:36 10° N 02:53:57 20° NE 02:54:23 20° NE visible
24 Apr 4.3 04:34:22 10° NNW 04:37:31 32° NW 04:37:31 32° NW visible
25 Apr 4.0 02:52:52 10° N 02:57:53 27° NE 02:58:09 27° ENE visible
25 Apr 4.5 04:38:16 10° NW 04:41:17 28° WNW 04:41:17 28° WNW visible
26 Apr 3.6 02:56:16 10° N 03:01:46 36° ENE 03:01:57 36° ENE visible
26 Apr 4.7 04:42:19 10° NW 04:45:05 23° WNW 04:45:05 23° WNW visible
27 Apr 3.2 02:59:46 10° NNW 03:05:35 49° ENE 03:05:48 48° ENE visible
27 Apr 4.9 04:46:35 10° NW 04:48:56 18° WNW 04:48:56 18° WNW visible
28 Apr 4.9 01:20:56 10° NNE 01:22:19 11° NE 01:23:42 10° ENE visible
28 Apr 2.8 03:03:22 10° NNW 03:09:22 67° ENE 03:09:41 66° E visible
28 Apr 5.2 04:51:14 10° WNW 04:52:49 14° W 04:52:49 14° W visible
